COSMOS 1275 DEB, 13476

Orbit data source: Space-Track

COSMOS 1275 DEB, 13476 is space debris in LEO originally from a launch on Thu, 04 Jun 1981 UTC launched from the Plesetsk Missile And Space Complex (PKMTR). Debris objects in space refer to the collection of defunct objects orbiting the Earth. Examples of debris include non-operational satellites, rocket bodies, and fragments generated from explosions, collisions, or faulty payload assembly.

Loading next visibility...
Identifier
13476, 1981-053FW
Orbit
LEO
Country
Flag of CISCIS
Related business
Manufacturer
Unknown
Mission
Spacecraft
Bus & Motor
Unknown
Mass
Unknown
Launch date (UTC)
1981-06-04 (45 years ago)
Launch vehicle
Unknown
Launch site
Plesetsk Missile And Space Complex (PKMTR)
Object type
Payload
Rocket body
Debris
Shape & HBR
Unknown shape, 0.1 m
Radar Cross Section
Small (<0.1 m²)

Expand to show TLE details & history
Last TLE update: 14 hours ago

TLE from 14 hours ago
0 COSMOS 1275 DEB
1 13476U 81053FW  26037.04740351  .00002116  00000-0  13348-2 0  9991
2 13476  82.7988 260.6713 0049517 254.2597 262.3702 14.03198286211008
Epoch: 2026-02-06T01:08Z
TLE epoch observation values (Epoch: 2026-02-06T01:08:15.663Z)
Latitude
23.75383°
Longitude
-75.75571°
Altitude
890.589 km
Speed
7.406 km/s
True Right ascension
05h 10m 00s
True Declination
23° 37' 47"
Sunlit
Object was in full shadow at epoch
Visualization orbit readout
Latitude
Unknown
Longitude
Unknown
Altitude
Unknown
Speed
Unknown
Apparent Right ascension
Unknown
Apparent Declination
Unknown
Sunlit
N/A
Visualization observer readout
Local Sidereal Time
17:23:00
Azimuth
Unknown
Elevation
Unknown
Doppler factor
Unknown
Orbital elements
Apogee altitude
915.796 km
Perigee altitude
843.917 km
Semi-major axis
7,257.993 km
Eccentricity
0.00495
Inclination
82.7988°
RAAN
260.6713°
Arg. of periapsis
254.2597°
True anomaly
261.80827°
Mean anomaly
262.3702°
Eccentric anomaly
262.08919°
Mean motion
3.51009 °/min
Orbital period
102.56 mins
BSTAR
0.0013348
Loading maneuver chart data...
Computing Atmospheric mass density...
Loading historical data...
Loading historical data...
Loading historical data...
Loading historical data...
Loading historical data...
Loading historical data...
Loading historical data...

Documentation

Showing up to 5 results
|